DW6366 Weather Reports


Display with metric or nautical units.
time (UTC)temp
F
wind
direction
speed
MPH
gust
MPH
rain 1hr
in
rain 24hr
in
rain mn
in
humidity
%
barometer
mb
20260506001353 49 337 2.0 7.0 0.00 0.00 0.00 82 1009.8
20260506000338 49 44 1.0 3.0 0.00 0.00 0.00 82 1009.9
20260505235322 49 22 1.0 3.0 0.00 0.00 0.00 82 1009.9
20260505234321 49 344 0.0 5.0 0.00 0.00 0.00 82 1010.0
20260505233332 49 11 1.0 3.0 0.00 0.00 0.00 81 1010.0
20260505232325 49 347 1.0 5.0 0.00 0.00 0.00 81 1010.0
20260505231336 49 22 1.0 4.0 0.00 0.00 0.00 80 1010.1
20260505230325 49 344 1.0 5.0 0.00 0.00 0.00 80 1010.1
20260505225339 49 5 3.0 9.0 0.00 0.00 0.00 80 1010.2
20260505224323 49 14 1.0 3.0 0.00 0.00 0.00 79 1010.3
20260505223319 49 11 1.0 4.0 0.00 0.00 0.00 79 1010.3
20260505222336 50 350 0.0 5.0 0.00 0.00 0.00 79 1010.3
20260505221339 50 358 1.0 6.0 0.00 0.00 0.00 79 1010.3
20260505220406 50 350 2.0 8.0 0.00 0.00 0.00 78 1010.3
20260505215331 50 347 3.0 9.0 0.00 0.00 0.00 78 1010.4
20260505214320 50 355 2.0 8.0 0.00 0.00 0.00 78 1010.4
20260505213336 50 9 3.0 7.0 0.00 0.00 0.00 79 1010.5
20260505212327 51 334 2.0 8.0 0.00 0.00 0.00 79 1010.5
20260505211323 51 15 2.0 5.0 0.00 0.00 0.00 79 1010.6
20260505210328 51 27 3.0 8.0 0.00 0.00 0.00 79 1010.6
20260505205338 51 328 3.0 7.0 0.00 0.00 0.00 79 1010.7
20260505204337 52 324 2.0 5.0 0.00 0.00 0.00 79 1010.7
20260505203350 52 342 3.0 8.0 0.00 0.00 0.00 78 1010.7
20260505202409 52 356 2.0 7.0 0.00 0.00 0.00 78 1010.7
20260505201350 52 358 2.0 9.0 0.00 0.00 0.00 78 1010.7
20260505200348 53 334 2.0 7.0 0.00 0.00 0.00 77 1010.7
20260505195326 53 1 2.0 6.0 0.00 0.00 0.00 76 1010.6
20260505194337 53 12 1.0 6.0 0.00 0.00 0.00 76 1010.5
20260505193331 53 29 1.0 11.0 0.00 0.00 0.00 75 1010.4
20260505192343 53 248 3.0 9.0 0.00 0.00 0.00 75 1010.3
20260505191354 54 55 2.0 10.0 0.00 0.00 0.00 75 1010.1
20260505190340 54 352 3.0 8.0 0.00 0.00 0.00 74 1010.0
20260505185348 54 276 2.0 9.0 0.00 0.00 0.00 73 1009.9
20260505184329 55 281 2.0 9.0 0.00 0.00 0.00 72 1009.9
20260505183326 55 2 3.0 9.0 0.00 0.00 0.00 72 1009.7
20260505182326 56 340 3.0 9.0 0.00 0.00 0.00 71 1009.7
20260505181334 56 36 3.0 9.0 0.00 0.00 0.00 71 1009.7
20260505180336 56 332 4.0 10.0 0.00 0.00 0.00 70 1009.7
20260505175349 56 70 4.0 9.0 0.00 0.00 0.00 70 1009.5
20260505174332 56 51 3.0 10.0 0.00 0.00 0.00 70 1009.6
20260505173323 57 336 3.0 10.0 0.00 0.00 0.00 70 1009.7
20260505172352 57 57 2.0 8.0 0.00 0.00 0.00 70 1009.7
20260505171331 57 56 4.0 8.0 0.00 0.00 0.00 69 1009.7
20260505170327 57 343 5.0 12.0 0.00 0.00 0.00 68 1009.8
20260505165323 58 353 3.0 7.0 0.00 0.35 0.00 68 1009.9
20260505164353 58 25 2.0 14.0 0.00 0.35 0.00 68 1009.9
20260505163329 59 346 3.0 7.0 0.00 0.35 0.00 67 1009.8
20260505162321 59 331 2.0 9.0 0.00 0.35 0.00 67 1009.9
20260505161335 59 5 3.0 8.0 0.00 0.35 0.00 66 1010.0
20260505160325 58 5 3.0 10.0 0.00 0.35 0.00 67 1010.0
20260505153347 61 290 3.0 8.0 0.00 0.67 0.00 65 1009.9
20260505152351 59 47 2.0 7.0 0.00 0.67 0.00 67 1010.1
20260505151346 59 296 2.0 7.0 0.00 0.67 0.00 68 1010.1
20260505150320 59 350 2.0 5.0 0.00 0.67 0.00 66 1010.1
20260505140325 60 358 2.0 8.0 0.00 0.71 0.00 68 1010.3
20260505124323 61 96 1.0 7.0 0.00 0.71 0.00 68 1010.7
20260505123320 61 29 2.0 8.0 0.00 0.71 0.00 69 1010.7
20260505122339 60 46 2.0 8.0 0.00 0.71 0.00 70 1010.9
20260505121337 61 102 8.0 18.0 0.00 0.71 0.00 71 1010.8
20260505115324 60 71 8.0 17.0 0.00 0.71 0.00 72 1010.7
20260505114320 59 345 3.0 8.0 0.00 0.71 0.00 74 1011.0
20260505113327 59 335 3.0 8.0 0.00 0.71 0.00 74 1010.9
20260505112321 59 127 2.0 10.0 0.00 0.71 0.00 72 1011.0
20260505111328 60 19 2.0 8.0 0.00 0.71 0.00 73 1011.1
20260505110335 59 302 4.0 9.0 0.00 0.71 0.00 73 1011.1
20260505101335 57 68 6.0 13.0 0.00 0.71 0.00 78 1011.6
20260505100323 57 79 6.0 15.0 0.00 0.71 0.00 83 1011.7
20260505095325 54 360 2.0 9.0 0.00 0.71 0.00 87 1011.8
20260505094319 52 17 2.0 6.0 0.00 0.71 0.00 89 1011.8
20260505093324 52 18 2.0 8.0 0.00 0.71 0.00 89 1011.9
20260505092345 52 156 1.0 7.0 0.00 0.71 0.00 90 1011.9
20260505091320 51 360 2.0 5.0 0.00 0.71 0.00 90 1012.0
20260505090357 51 17 1.0 9.0 0.00 0.71 0.00 90 1012.0
20260505085335 51 64 2.0 9.0 0.00 0.71 0.00 91 1012.0
20260505084326 51 15 3.0 9.0 0.00 0.71 0.00 91 1011.9
20260505083320 51 354 2.0 7.0 0.00 0.71 0.00 91 1011.9
20260505082328 51 83 2.0 7.0 0.00 0.71 0.00 91 1011.9
20260505081339 51 21 1.0 7.0 0.00 0.71 0.00 91 1011.8
20260505080328 51 316 2.0 9.0 0.00 0.71 0.00 91 1011.8
20260505075337 51 31 2.0 5.0 0.00 0.71 0.00 92 1011.7
20260505074328 51 15 2.0 10.0 0.00 0.71 0.00 92 1011.8
20260505073345 51 17 2.0 5.0 0.00 0.71 0.00 92 1011.8
20260505072322 51 14 1.0 7.0 0.00 0.71 0.00 91 1011.7
20260505071319 51 39 1.0 6.0 0.00 0.71 0.00 91 1011.8
20260505070348 51 20 2.0 7.0 0.00 0.71 0.00 91 1011.8
20260505065324 51 340 2.0 8.0 0.00 0.71 0.00 91 1011.9
20260505064326 51 83 1.0 4.0 0.00 0.71 0.00 91 1012.0
20260505063345 51 288 3.0 8.0 0.00 0.71 0.00 91 1012.0
20260505062400 51 358 2.0 8.0 0.00 0.71 0.00 91 1012.0
20260505061321 51 360 1.0 6.0 0.00 0.71 0.00 91 1012.1
20260505060345 51 17 1.0 7.0 0.00 0.71 0.00 90 1012.2
20260505055333 51 27 2.0 5.0 0.00 0.71 0.00 90 1012.3
20260505054325 51 5 1.0 5.0 0.00 0.71 0.00 90 1012.2
20260505053336 51 345 2.0 6.0 0.00 0.71 0.00 90 1012.2
20260505052326 51 10 0.0 5.0 0.00 0.71 0.00 90 1012.2
20260505051331 51 347 1.0 4.0 0.00 0.71 0.00 90 1012.1
20260505050340 51 13 2.0 7.0 0.00 0.71 0.00 90 1012.0
20260505041332 50 10 2.0 7.0 0.00 0.71 0.00 89 1011.9
20260505040336 50 203 1.0 4.0 0.00 0.71 0.00 89 1011.9
20260505035355 50 9 2.0 8.0 0.00 0.71 0.00 89 1011.9
20260505034402 50 22 2.0 7.0 0.00 0.71 0.00 89 1011.9
20260505033323 50 324 2.0 8.0 0.00 0.71 0.00 89 1012.0
20260505032323 50 340 3.0 10.0 0.00 0.71 0.00 89 1012.1
20260505031339 51 58 2.0 12.0 0.00 0.71 0.00 89 1012.1
20260505030334 51 19 2.0 7.0 0.00 0.71 0.00 89 1012.2
20260505025323 51 350 3.0 6.0 0.00 0.71 0.00 89 1012.1
20260505024334 51 344 3.0 6.0 0.00 0.71 0.00 89 1012.1
20260505023346 51 13 3.0 8.0 0.00 0.71 0.00 89 1012.1
20260505022355 51 1 2.0 8.0 0.00 0.71 0.00 89 1012.1
20260505021338 51 42 3.0 7.0 0.00 0.71 0.00 89 1012.1
20260505020328 52 21 3.0 8.0 0.00 0.71 0.00 89 1012.2
20260505015337 52 309 2.0 6.0 0.00 0.75 0.00 89 1012.2
20260505014328 52 39 4.0 11.0 0.00 0.75 0.00 89 1012.2
20260505013332 52 3 2.0 7.0 0.00 0.75 0.00 89 1012.2
20260505012323 52 352 2.0 7.0 0.00 0.75 0.00 89 1012.3
20260505011324 53 354 3.0 8.0 0.00 0.75 0.00 89 1012.3
20260505010330 53 315 2.0 8.0 0.00 0.75 0.00 88 1012.2
20260505005319 53 1 2.0 8.0 0.00 0.75 0.00 88 1012.4
20260505004351 53 63 3.0 9.0 0.00 0.75 0.00 89 1012.5
20260505003413 53 34 2.0 7.0 0.00 0.75 0.00 89 1012.5
20260505002331 53 3 3.0 10.0 0.00 0.75 0.00 89 1012.5